Tracking 20093 objects as of 14-Dec-2019
HD Live streaming from Space Station
objects crossing your sky now

FENGYUN 1C DEB

Track FENGYUN 1C DEB now!
10-day predictions


NORAD ID: 32103
Int'l Code: 1999-025CQV
Perigee: 623.4 km
Apogee: 730.6 km
Inclination: 96.7 °
Period: 98.1 minutes
Semi major axis: 7047 km
RCS: 0.0063 m2 (small)
Launch date: May 10, 1999
Source: People's Republic of China (PRC)
Launch site: Taiyaun Space Center, China (TSC)

Note: This is SATELLITE DEBRIS
aabbcc
Your satellite tracking list
Your tracking list is empty




NASA's NSSDC Master Catalog

Two Line Element Set (TLE):
1 32103U 99025CQV 19347.90897164  .00002037  00000-0  35259-3 0  9991
2 32103  96.7083 142.2655 0076082 249.8121 264.1549 14.67258088666827
Source of the keplerian elements: AFSPC